Location: Altleiningen
(49.5078°N, 8.0741°E)
Time: 04:10:44
(UTC+00:00)

Terra - Pass Details

Date: 03 March 2021
Orbit: 701 x 703 km, 98.2° (Epoch: 11 April)

Event Time Altitude Azimuth Distance (km) Brightness Sun altitude
Exits shadow 19:42:42 12° 27° (NNE) 2,075 4.2 -24.6°
Drops below altitude 10° 19:43:13 10° 22° (NNE) 2,183 4.3 -24.7°
Sets 19:46:23 0° 360° (N) 3,107 5.4 -25.2°
